����,���ϕ���(m/s),���ϕ���,�ő�u�ԕ���(m/s),�ő啗��������,�C��(��),���x(%),10���Ԉړ��ώZ�J��(mm),1���Ԉړ��ώZ�J��(mm),���J��(mm),�݌v�J��(mm),����(���ώZ)(MJ/m2),����(���ώZ)(min),���n�C��(hPa),�C�ʋC��(hPa)
2024-06-24T00:00:00+09:00,3.1,��,4.9,��,24.6,97.6,0,0,22,30,4.67,0,989.6,1002.8
2024-06-24T00:01:00+09:00,3.1,��,4.9,��,24.6,97.7,0,0,0,30,0,0,989.7,1002.9
2024-06-24T00:02:00+09:00,3.2,��,4.9,��,24.6,97.7,0,0,0,30,0,0,989.7,1002.9
2024-06-24T00:03:00+09:00,3.2,��,4.9,��,24.6,97.7,0,0,0,30,0,0,989.7,1002.9
2024-06-24T00:04:00+09:00,3.2,��,4.8,��,24.6,97.7,0,0,0,30,0,0,989.7,1002.9
2024-06-24T00:05:00+09:00,3.2,��,4.8,��,24.6,97.8,0,0,0,30,0,0,989.7,1002.9
2024-06-24T00:06:00+09:00,3.2,��,4.8,��,24.6,97.8,0,0,0,30,0,0,989.8,1003
2024-06-24T00:07:00+09:00,3.1,��,4.8,��,24.6,97.8,0,0,0,30,0,0,989.7,1002.9
2024-06-24T00:08:00+09:00,2.9,��,4.8,��,24.6,97.8,0,0,0,30,0,0,989.7,1002.9
2024-06-24T00:09:00+09:00,2.7,��,4.8,��,24.5,97.8,0,0,0,30,0,0,989.7,1002.9
2024-06-24T00:10:00+09:00,2.6,��,4.8,��,24.5,97.9,0,0,0,30,0,0,989.7,1002.9
2024-06-24T00:11:00+09:00,2.4,��,4.8,��,24.5,97.9,0,0,0,30,0,0,989.7,1002.9
2024-06-24T00:12:00+09:00,2.2,��,4.8,��,24.5,97.9,0,0,0,30,0,0,989.6,1002.8
2024-06-24T00:13:00+09:00,1.9,��쓌,4.1,��,24.5,98,0,0,0,30,0,0,989.7,1002.9
2024-06-24T00:14:00+09:00,1.7,��쓌,4.1,��,24.5,98,0,0,0,30,0,0,989.7,1002.9
2024-06-24T00:15:00+09:00,1.5,��쓌,4.1,��,24.4,98,0,0,0,30,0,0,989.7,1002.9
2024-06-24T00:16:00+09:00,1.3,��쓌,3.7,��,24.4,98.1,0,0,0,30,0,0,989.6,1002.8
2024-06-24T00:17:00+09:00,1.2,��쓌,3,��쓌,24.4,98.1,0,0,0,30,0,0,989.6,1002.8
2024-06-24T00:18:00+09:00,1.1,��쓌,3,��쓌,24.4,98.2,0,0,0,30,0,0,989.6,1002.8
2024-06-24T00:19:00+09:00,1.1,��쓌,3,��쓌,24.4,98.2,0,0,0,30,0,0,989.6,1002.8
2024-06-24T00:20:00+09:00,0.9,��쓌,2.8,��쓌,24.3,98.2,0,0,0,30,0,0,989.6,1002.8
2024-06-24T00:21:00+09:00,0.9,��쓌,2.8,��쓌,24.3,98.2,0,0,0,30,0,0,989.7,1002.9
2024-06-24T00:22:00+09:00,0.9,��쓌,2.8,��쓌,24.3,98.3,0,0,0,30,0,0,989.7,1002.9
2024-06-24T00:23:00+09:00,0.9,��쓌,2.8,��쓌,24.3,98.3,0,0,0,30,0,0,989.7,1002.9
2024-06-24T00:24:00+09:00,0.9,��쓌,2.8,��쓌,24.3,98.3,0,0,0,30,0,0,989.7,1002.9
2024-06-24T00:25:00+09:00,0.9,��쓌,2.6,��,24.3,98.3,0,0,0,30,0,0,989.7,1002.9
2024-06-24T00:26:00+09:00,0.8,��쓌,2.5,�쓌,24.3,98.4,0,0,0,30,0,0,989.7,1002.9
2024-06-24T00:27:00+09:00,0.7,��쓌,2.5,�쓌,24.3,98.4,0,0,0,30,0,0,989.7,1002.9
2024-06-24T00:28:00+09:00,0.7,��쓌,2.5,�쓌,24.3,98.4,0,0,0,30,0,0,989.6,1002.8
2024-06-24T00:29:00+09:00,0.7,��쓌,1.8,��쓌,24.3,98.4,0,0,0,30,0,0,989.6,1002.8
2024-06-24T00:30:00+09:00,0.7,��쓌,2,��,24.3,98.4,0,0,0,30,0,0,989.6,1002.8
2024-06-24T00:31:00+09:00,0.7,��쓌,2,��,24.3,98.4,0,0,0,30,0,0,989.6,1002.8
2024-06-24T00:32:00+09:00,0.7,��쓌,2,��,24.3,98.4,0,0,0,30,0,0,989.7,1002.9
2024-06-24T00:33:00+09:00,0.6,��쓌,2,��,24.3,98.4,0,0,0,30,0,0,989.7,1002.9
2024-06-24T00:34:00+09:00,0.6,��쓌,2,��,24.2,98.4,0,0,0,30,0,0,989.6,1002.9
2024-06-24T00:35:00+09:00,0.6,��쓌,2,��,24.2,98.4,0,0,0,30,0,0,989.6,1002.9
2024-06-24T00:36:00+09:00,0.6,��쓌,2,��,24.2,98.4,0,0,0,30,0,0,989.6,1002.9
2024-06-24T00:37:00+09:00,0.6,��쓌,2,��,24.2,98.5,0,0,0,30,0,0,989.6,1002.9
2024-06-24T00:38:00+09:00,0.6,��쓌,2,��,24.2,98.5,0,0,0,30,0,0,989.6,1002.9
2024-06-24T00:39:00+09:00,0.7,��,2,��,24.2,98.5,0,0,0,30,0,0,989.6,1002.9
2024-06-24T00:40:00+09:00,0.6,��,1.8,��,24.2,98.5,0,0,0,30,0,0,989.6,1002.9
2024-06-24T00:41:00+09:00,0.7,��,1.5,��,24.2,98.5,0,0,0,30,0,0,989.7,1003
2024-06-24T00:42:00+09:00,0.7,��,1.5,��,24.2,98.5,0,0,0,30,0,0,989.7,1003
2024-06-24T00:43:00+09:00,0.7,��쐼,1.5,��,24.1,98.5,0,0,0,30,0,0,989.6,1002.9
2024-06-24T00:44:00+09:00,0.7,��쐼,1.5,��,24.1,98.6,0,0,0,30,0,0,989.7,1003
2024-06-24T00:45:00+09:00,0.7,��쐼,1.5,��,24.1,98.7,0,0,0,30,0,0,989.6,1002.9
2024-06-24T00:46:00+09:00,0.7,�쐼,1.5,��,24,98.7,0,0,0,30,0,0,989.7,1003
2024-06-24T00:47:00+09:00,0.8,�쐼,1.5,��,24,98.7,0,0,0,30,0,0,989.6,1002.9
2024-06-24T00:48:00+09:00,0.8,���쐼,1.4,��,24,98.8,0,0,0,30,0,0,989.6,1002.9
2024-06-24T00:49:00+09:00,0.7,���쐼,1.3,��쐼,24,98.8,0,0,0,30,0,0,989.6,1002.9
2024-06-24T00:50:00+09:00,0.7,��,1.3,��쐼,24,98.9,0,0,0,30,0,0,989.6,1002.9
2024-06-24T00:51:00+09:00,0.7,��,1.3,��쐼,24,98.9,0,0,0,30,0,0,989.6,1002.9
2024-06-24T00:52:00+09:00,0.7,��,1.3,��쐼,23.9,98.9,0,0,0,30,0,0,989.6,1002.9
2024-06-24T00:53:00+09:00,0.7,��,1.6,��,23.9,98.9,0,0,0,30,0,0,989.6,1002.9
2024-06-24T00:54:00+09:00,0.8,��,1.7,��,23.9,98.9,0,0,0,30,0,0,989.7,1003
2024-06-24T00:55:00+09:00,0.9,��,1.7,��,23.8,99,0,0,0,30,0,0,989.7,1003
2024-06-24T00:56:00+09:00,1,��,1.8,��,23.7,99,0,0,0,30,0,0,989.7,1003
2024-06-24T00:57:00+09:00,1.1,��,2,���쐼,23.7,99,0,0,0,30,0,0,989.7,1003
2024-06-24T00:58:00+09:00,1.2,��,2,���쐼,23.7,99.1,0,0,0,30,0,0,989.7,1003
2024-06-24T00:59:00+09:00,1.3,��,2,���쐼,23.8,99.1,0,0,0,30,0,0,989.6,1002.9
2024-06-24T01:00:00+09:00,1.4,��,2,���쐼,23.8,99.2,0,0,0,30,0,0,989.6,1002.9
2024-06-24T01:01:00+09:00,1.5,��,2.1,��,23.7,99.2,0,0,0,30,0,0,989.6,1002.9
2024-06-24T01:02:00+09:00,1.6,��,2.4,��,23.7,99.2,0,0,0,30,0,0,989.6,1002.9
2024-06-24T01:03:00+09:00,1.6,��,2.4,��,23.7,99.2,0,0,0,30,0,0,989.6,1002.9
2024-06-24T01:04:00+09:00,1.6,��,2.4,��,23.7,99.2,0,0,0,30,0,0,989.6,1002.9
2024-06-24T01:05:00+09:00,1.7,��,2.4,��,23.7,99.3,0,0,0,30,0,0,989.6,1002.9
2024-06-24T01:06:00+09:00,1.7,��,2.6,���쐼,23.7,99.3,0,0,0,30,0,0,989.5,1002.8
2024-06-24T01:07:00+09:00,1.8,��,2.6,���쐼,23.7,99.3,0,0,0,30,0,0,989.5,1002.8
2024-06-24T01:08:00+09:00,1.8,��,2.6,���쐼,23.7,99.3,0,0,0,30,0,0,989.5,1002.8
2024-06-24T01:09:00+09:00,1.8,��,2.6,���쐼,23.7,99.3,0,0,0,30,0,0,989.5,1002.8
2024-06-24T01:10:00+09:00,1.9,��,2.6,���쐼,23.7,99.3,0,0,0,30,0,0,989.5,1002.8
2024-06-24T01:11:00+09:00,1.8,��,2.6,���쐼,23.7,99.3,0,0,0,30,0,0,989.5,1002.8
2024-06-24T01:12:00+09:00,1.8,��,2.6,���쐼,23.6,99.3,0,0,0,30,0,0,989.6,1002.9
2024-06-24T01:13:00+09:00,1.8,��,2.6,���쐼,23.6,99.3,0,0,0,30,0,0,989.6,1002.9
2024-06-24T01:14:00+09:00,1.8,��,2.6,���쐼,23.6,99.3,0,0,0,30,0,0,989.6,1002.9
2024-06-24T01:15:00+09:00,1.8,��,2.6,���쐼,23.6,99.4,0,0,0,30,0,0,989.6,1002.9
2024-06-24T01:16:00+09:00,1.7,��,2.5,���쐼,23.6,99.4,0,0,0,30,0,0,989.6,1002.9
2024-06-24T01:17:00+09:00,1.6,��,2.3,��,23.6,99.4,0,0,0,30,0,0,989.6,1002.9
2024-06-24T01:18:00+09:00,1.6,��,2.4,��,23.6,99.4,0,0,0,30,0,0,989.6,1002.9
2024-06-24T01:19:00+09:00,1.7,��,2.4,��,23.6,99.4,0,0,0,30,0,0,989.6,1002.9
2024-06-24T01:20:00+09:00,1.7,��,2.4,��,23.6,99.4,0,0,0,30,0,0,989.6,1002.9
2024-06-24T01:21:00+09:00,1.7,��,2.4,��,23.5,99.3,0,0,0,30,0,0,989.6,1002.9
2024-06-24T01:22:00+09:00,1.7,��,2.4,��,23.5,99.4,0,0,0,30,0,0,989.6,1002.9
2024-06-24T01:23:00+09:00,1.7,��,2.4,��,23.6,99.4,0,0,0,30,0,0,989.6,1002.9
2024-06-24T01:24:00+09:00,1.7,��,2.4,��,23.5,99.4,0,0,0,30,0,0,989.6,1002.9
2024-06-24T01:25:00+09:00,1.6,��,2.4,��,23.5,99.4,0,0,0,30,0,0,989.6,1002.9
2024-06-24T01:26:00+09:00,1.5,��,2.4,��,23.6,99.4,0,0,0,30,0,0,989.6,1002.9
2024-06-24T01:27:00+09:00,1.6,��,2.4,��,23.5,99.4,0,0,0,30,0,0,989.7,1003
2024-06-24T01:28:00+09:00,1.5,��,2.2,��,23.5,99.4,0,0,0,30,0,0,989.7,1003
2024-06-24T01:29:00+09:00,1.5,���쐼,2.2,��,23.5,99.4,0,0,0,30,0,0,989.7,1003
2024-06-24T01:30:00+09:00,1.5,���쐼,2.4,���쐼,23.6,99.5,0,0,0,30,0,0,989.8,1003.1
2024-06-24T01:31:00+09:00,1.5,��,2.4,���쐼,23.6,99.5,0,0,0,30,0,0,989.8,1003.1
2024-06-24T01:32:00+09:00,1.4,���쐼,2.4,���쐼,23.6,99.5,0,0,0,30,0,0,989.9,1003.2
2024-06-24T01:33:00+09:00,1.3,��,2.4,���쐼,23.6,99.5,0,0,0,30,0,0,989.9,1003.2
2024-06-24T01:34:00+09:00,1.3,��,2.4,���쐼,23.7,99.5,0,0,0,30,0,0,989.9,1003.2
2024-06-24T01:35:00+09:00,1.3,��,2.4,���쐼,23.6,99.4,0,0,0,30,0,0,989.9,1003.2
2024-06-24T01:36:00+09:00,1.3,��,2.4,���쐼,23.7,99.4,0,0,0,30,0,0,989.9,1003.2
2024-06-24T01:37:00+09:00,1.2,��,2.4,���쐼,23.6,99.4,0,0,0,30,0,0,989.9,1003.2
2024-06-24T01:38:00+09:00,1.1,��,2.4,���쐼,23.6,99.3,0,0,0,30,0,0,989.9,1003.2
2024-06-24T01:39:00+09:00,1,��,2.4,���쐼,23.6,99.3,0,0,0,30,0,0,990,1003.3
2024-06-24T01:40:00+09:00,0.8,��,2,��,23.6,99.3,0,0,0,30,0,0,990,1003.3
2024-06-24T01:41:00+09:00,0.8,��,2,��,23.7,99.4,0,0,0,30,0,0,990,1003.3
2024-06-24T01:42:00+09:00,0.9,��,2.9,��,23.8,99.5,0,0,0,30,0,0,990.1,1003.4
2024-06-24T01:43:00+09:00,0.9,���쐼,2.9,��,23.7,99.4,0,0,0,30,0,0,990.1,1003.4
2024-06-24T01:44:00+09:00,0.8,�쐼,2.9,��,23.7,99.3,0,0,0,30,0,0,990.1,1003.4
2024-06-24T01:45:00+09:00,0.8,��쐼,2.9,��,23.8,99.4,0,0,0,30,0,0,990.1,1003.4
2024-06-24T01:46:00+09:00,0.7,��쐼,2.9,��,23.8,99.4,0,0,0,30,0,0,990.2,1003.5
2024-06-24T01:47:00+09:00,0.7,��,2.9,��,23.8,99.3,0,0,0,30,0,0,990.2,1003.5
2024-06-24T01:48:00+09:00,0.7,��,2.9,��,23.8,99.3,0,0,0,30,0,0,990.2,1003.5
2024-06-24T01:49:00+09:00,0.7,��쓌,2.9,��,23.9,99.3,0,0,0,30,0,0,990.3,1003.6
2024-06-24T01:50:00+09:00,0.8,��쓌,2.9,��,23.9,99.3,0,0,0,30,0,0,990.3,1003.6
2024-06-24T01:51:00+09:00,0.7,��쓌,2.9,��,23.9,99.3,0,0,0,30,0,0,990.4,1003.7
2024-06-24T01:52:00+09:00,0.6,��쓌,2,��,23.8,99.2,0,0,0,30,0,0,990.4,1003.7
2024-06-24T01:53:00+09:00,0.6,��쓌,1.6,��,23.9,99.3,0,0,0,30,0,0,990.4,1003.7
2024-06-24T01:54:00+09:00,0.7,��,1.7,��쐼,23.9,99.2,0,0,0,30,0,0,990.4,1003.7
2024-06-24T01:55:00+09:00,0.7,��,1.7,��쐼,23.9,99.3,0,0,0,30,0,0,990.4,1003.7
2024-06-24T01:56:00+09:00,0.7,��,1.7,��쐼,23.9,99.3,0,0,0,30,0,0,990.5,1003.8
2024-06-24T01:57:00+09:00,0.8,��,1.7,��쐼,24,99.3,0,0,0,30,0,0,990.5,1003.8
2024-06-24T01:58:00+09:00,0.9,��,2.6,�쐼,24,99.3,0,0,0,30,0,0,990.5,1003.8
2024-06-24T01:59:00+09:00,0.9,��쐼,2.6,�쐼,23.9,99.1,0,0,0,30,0,0,990.6,1003.9
2024-06-24T02:00:00+09:00,1,��쐼,2.6,�쐼,24,99.1,0,0,0,30,0,0,990.6,1003.9
2024-06-24T02:01:00+09:00,1,��쐼,2.6,�쐼,23.9,99.1,0,0,0,30,0,0,990.6,1003.9
2024-06-24T02:02:00+09:00,1,��쐼,2.6,�쐼,23.9,99,0,0,0,30,0,0,990.6,1003.9
2024-06-24T02:03:00+09:00,1,�쐼,2.6,�쐼,23.9,99,0,0,0,30,0,0,990.6,1003.9
2024-06-24T02:04:00+09:00,0.9,�쐼,2.6,�쐼,23.8,99,0,0,0,30,0,0,990.6,1003.9
2024-06-24T02:05:00+09:00,0.8,���쐼,2.6,�쐼,23.8,99,0,0,0,30,0,0,990.6,1003.9
2024-06-24T02:06:00+09:00,0.7,���쐼,2.6,�쐼,23.7,99,0,0,0,30,0,0,990.7,1004
2024-06-24T02:07:00+09:00,0.7,���쐼,2.6,�쐼,23.7,99,0,0,0,30,0,0,990.7,1004
2024-06-24T02:08:00+09:00,0.5,��,2.3,���쐼,23.7,99.1,0,0,0,30,0,0,990.7,1004
2024-06-24T02:09:00+09:00,0.5,��,2.1,��,23.8,99.1,0,0,0,30,0,0,990.7,1004
2024-06-24T02:10:00+09:00,0.4,��,1.4,�쐼,23.9,99.3,0,0,0,30,0,0,990.7,1004
2024-06-24T02:11:00+09:00,0.4,���k��,1,��,23.8,99.1,0,0,0,30,0,0,990.7,1004
2024-06-24T02:12:00+09:00,0.3,��,1,��,23.8,99.1,0,0,0,30,0,0,990.7,1004
2024-06-24T02:13:00+09:00,0.3,���k��,1,��,23.9,99.2,0,0,0,30,0,0,990.6,1003.9
2024-06-24T02:14:00+09:00,0.3,���k��,0.7,�쓌,23.9,99.2,0,0,0,30,0,0,990.6,1003.9
2024-06-24T02:15:00+09:00,0.3,��,0.7,�쓌,23.8,99,0,0,0,30,0,0,990.6,1003.9
2024-06-24T02:16:00+09:00,0.3,���k��,1.1,��,23.8,99,0,0,0,30,0,0,990.6,1003.9
2024-06-24T02:17:00+09:00,0.3,���k��,1.1,��,23.9,99.1,0,0,0,30,0,0,990.6,1003.9
2024-06-24T02:18:00+09:00,0.3,��쓌,1.1,��,23.9,99.1,0,0,0,30,0,0,990.6,1003.9
2024-06-24T02:19:00+09:00,0.3,���쓌,1.1,��,23.9,99.1,0,0,0,30,0,0,990.6,1003.9
2024-06-24T02:20:00+09:00,0.3,��,1.1,��,23.8,99,0,0,0,30,0,0,990.6,1003.9
2024-06-24T02:21:00+09:00,0.3,��,1.1,��,23.8,99,0,0,0,30,0,0,990.5,1003.8
2024-06-24T02:22:00+09:00,0.3,��,1.1,��,23.8,99,0,0,0,30,0,0,990.5,1003.8
2024-06-24T02:23:00+09:00,0.3,��,1.1,��,23.8,99,0,0,0,30,0,0,990.6,1003.9
2024-06-24T02:24:00+09:00,0.3,���k��,1.1,��,23.7,99,0,0,0,30,0,0,990.6,1003.9
2024-06-24T02:25:00+09:00,0.3,���k��,1.1,��,23.7,99.1,0,0,0,30,0,0,990.6,1003.9
2024-06-24T02:26:00+09:00,0.3,�k��,0.8,��,23.7,99.1,0,0,0,30,0,0,990.6,1003.9
2024-06-24T02:27:00+09:00,0.3,�k��,0.7,�쓌,23.6,99.1,0,0,0,30,0,0,990.6,1003.9
2024-06-24T02:28:00+09:00,0.2,�É�,0.6,�k��,23.6,99.1,0,0,0,30,0,0,990.6,1003.9
2024-06-24T02:29:00+09:00,0.2,�É�,0.6,�k��,23.6,99.2,0,0,0,30,0,0,990.7,1004
2024-06-24T02:30:00+09:00,0.2,�É�,0.5,�k,23.6,99.2,0,0,0,30,0,0,990.7,1004
2024-06-24T02:31:00+09:00,0.2,�É�,0.6,�k,23.6,99.3,0,0,0,30,0,0,990.7,1004
2024-06-24T02:32:00+09:00,0.2,�É�,0.6,�k,23.6,99.3,0,0,0,30,0,0,990.7,1004
2024-06-24T02:33:00+09:00,0.3,�k�k��,0.8,�k,23.6,99.3,0,0,0,30,0,0,990.7,1004
2024-06-24T02:34:00+09:00,0.3,�k�k��,0.9,�k�k��,23.7,99.4,0,0,0,30,0,0,990.7,1004
2024-06-24T02:35:00+09:00,0.4,�k�k��,0.9,�k�k��,23.7,99.4,0,0,0,30,0,0,990.7,1004
2024-06-24T02:36:00+09:00,0.4,�k�k��,1.1,�k,23.7,99.4,0,0,0,30,0,0,990.7,1004
2024-06-24T02:37:00+09:00,0.5,�k�k��,1.2,�k,23.6,99.4,0,0,0,30,0,0,990.7,1004
2024-06-24T02:38:00+09:00,0.5,�k,1.2,�k,23.6,99.4,0,0,0,30,0,0,990.8,1004.1
2024-06-24T02:39:00+09:00,0.6,�k,1.5,�k,23.6,99.4,0,0,0,30,0,0,990.8,1004.1
2024-06-24T02:40:00+09:00,0.7,�k,1.5,�k,23.6,99.4,0,0,0,30,0,0,990.8,1004.1
2024-06-24T02:41:00+09:00,0.7,�k,1.5,�k,23.6,99.4,0,0,0,30,0,0,990.8,1004.1
2024-06-24T02:42:00+09:00,0.8,�k,1.5,�k,23.6,99.4,0,0,0,30,0,0,990.8,1004.1
2024-06-24T02:43:00+09:00,0.9,�k�k��,1.5,�k,23.6,99.5,0,0,0,30,0,0,990.8,1004.1
2024-06-24T02:44:00+09:00,0.8,�k�k��,1.5,�k,23.7,99.5,0,0,0,30,0,0,990.9,1004.2
2024-06-24T02:45:00+09:00,0.8,�k�k��,1.5,�k,23.6,99.5,0,0,0,30,0,0,990.9,1004.2
2024-06-24T02:46:00+09:00,0.7,�k��,1.5,�k,23.6,99.5,0,0,0,30,0,0,990.9,1004.2
2024-06-24T02:47:00+09:00,0.7,�k��,1.5,�k,23.6,99.5,0,0,0,30,0,0,990.8,1004.1
2024-06-24T02:48:00+09:00,0.6,�k��,1.5,�k,23.7,99.5,0,0,0,30,0,0,990.8,1004.1
2024-06-24T02:49:00+09:00,0.5,�k��,1.5,�k��,23.7,99.5,0,0,0,30,0,0,990.8,1004.1
2024-06-24T02:50:00+09:00,0.5,�k��,1.5,�k��,23.7,99.5,0,0,0,30,0,0,990.9,1004.2
2024-06-24T02:51:00+09:00,0.5,�k�k��,1.5,�k��,23.7,99.5,0,0,0,30,0,0,990.9,1004.2
2024-06-24T02:52:00+09:00,0.5,�k�k��,1.7,���k��,23.6,99.5,0,0,0,30,0,0,990.9,1004.2
2024-06-24T02:53:00+09:00,0.6,�k��,1.9,���k��,23.5,99.3,0,0,0,30,0,0,990.9,1004.2
2024-06-24T02:54:00+09:00,0.7,���k��,1.9,���k��,23.5,99.4,0,0,0,30,0,0,990.9,1004.2
2024-06-24T02:55:00+09:00,0.8,���k��,1.9,���k��,23.5,99.3,0,0,0,30,0,0,990.9,1004.2
2024-06-24T02:56:00+09:00,0.9,���k��,1.9,���k��,23.4,99.3,0,0,0,30,0,0,990.9,1004.2
2024-06-24T02:57:00+09:00,1,���k��,1.9,���k��,23.4,99.4,0,0,0,30,0,0,990.9,1004.2
2024-06-24T02:58:00+09:00,1.1,���k��,1.9,���k��,23.4,99.3,0,0,0,30,0,0,990.8,1004.1
2024-06-24T02:59:00+09:00,1.3,���k��,1.9,���k��,23.4,99.3,0,0,0,30,0,0,990.8,1004.1
2024-06-24T03:00:00+09:00,1.3,���k��,1.9,���k��,23.4,99.4,0,0,0,30,0,0,990.9,1004.2
2024-06-24T03:01:00+09:00,1.4,���k��,1.9,���k��,23.4,99.4,0,0,0,30,0,0,990.9,1004.2
2024-06-24T03:02:00+09:00,1.4,���k��,1.9,���k��,23.3,99.4,0,0,0,30,0,0,990.9,1004.2
2024-06-24T03:03:00+09:00,1.3,���k��,1.8,���k��,23.3,99.4,0,0,0,30,0,0,990.9,1004.2
2024-06-24T03:04:00+09:00,1.3,���k��,1.7,���k��,23.3,99.4,0,0,0,30,0,0,990.9,1004.2
2024-06-24T03:05:00+09:00,1.2,���k��,1.7,���k��,23.3,99.5,0,0,0,30,0,0,990.8,1004.1
2024-06-24T03:06:00+09:00,1.2,���k��,1.7,���k��,23.3,99.5,0,0,0,30,0,0,990.9,1004.2
2024-06-24T03:07:00+09:00,1.2,���k��,1.7,���k��,23.3,99.5,0,0,0,30,0,0,990.9,1004.2
2024-06-24T03:08:00+09:00,1.2,���k��,1.6,���k��,23.4,99.6,0,0,0,30,0,0,991,1004.3
2024-06-24T03:09:00+09:00,1.2,���k��,1.5,�k��,23.4,99.6,0,0,0,30,0,0,991,1004.3
2024-06-24T03:10:00+09:00,1.1,���k��,1.5,�k��,23.4,99.6,0,0,0,30,0,0,991,1004.3
2024-06-24T03:11:00+09:00,1,���k��,1.5,�k��,23.4,99.6,0,0,0,30,0,0,991,1004.3
2024-06-24T03:12:00+09:00,0.9,���k��,1.5,�k��,23.4,99.6,0,0,0,30,0,0,991.1,1004.4
2024-06-24T03:13:00+09:00,0.8,���k��,1.5,�k��,23.3,99.6,0,0,0,30,0,0,991.1,1004.4
2024-06-24T03:14:00+09:00,0.8,���k��,1.5,�k��,23.4,99.6,0,0,0,30,0,0,991.1,1004.4
2024-06-24T03:15:00+09:00,0.7,��,1.5,�k��,23.4,99.7,0,0,0,30,0,0,991.1,1004.4
2024-06-24T03:16:00+09:00,0.7,��,1.5,�k��,23.5,99.7,0,0,0,30,0,0,991.1,1004.4
2024-06-24T03:17:00+09:00,0.6,��,1.5,�k��,23.4,99.7,0,0,0,30,0,0,991.2,1004.5
2024-06-24T03:18:00+09:00,0.6,��,1.2,���k��,23.5,99.7,0,0,0,30,0,0,991.2,1004.5
2024-06-24T03:19:00+09:00,0.6,��,1.4,���k��,23.5,99.7,0,0,0,30,0,0,991.2,1004.5
2024-06-24T03:20:00+09:00,0.7,��,1.5,��,23.4,99.7,0,0,0,30,0,0,991.1,1004.4
2024-06-24T03:21:00+09:00,0.8,��,1.5,��,23.4,99.6,0,0,0,30,0,0,991.2,1004.5
2024-06-24T03:22:00+09:00,0.9,��,1.6,��,23.4,99.6,0,0,0,30,0,0,991.2,1004.5
2024-06-24T03:23:00+09:00,1,��,1.7,��,23.3,99.5,0,0,0,30,0,0,991.2,1004.5
2024-06-24T03:24:00+09:00,1,��,1.7,��,23.3,99.5,0,0,0,30,0,0,991.2,1004.5
2024-06-24T03:25:00+09:00,1.1,��,1.7,��,23.3,99.6,0,0,0,30,0,0,991.2,1004.5
2024-06-24T03:26:00+09:00,1.1,��,1.7,��,23.4,99.6,0,0,0,30,0,0,991.2,1004.5
2024-06-24T03:27:00+09:00,1.1,��,1.7,��,23.4,99.7,0,0,0,30,0,0,991.2,1004.5
2024-06-24T03:28:00+09:00,1.1,��,1.7,��,23.4,99.6,0,0,0,30,0,0,991.2,1004.5
2024-06-24T03:29:00+09:00,1.1,��,1.9,��,23.3,99.6,0,0,0,30,0,0,991.2,1004.5
2024-06-24T03:30:00+09:00,1.1,��,1.9,��,23.3,99.6,0,0,0,30,0,0,991.2,1004.5
2024-06-24T03:31:00+09:00,1.1,��,1.9,��,23.2,99.5,0,0,0,30,0,0,991.2,1004.5
2024-06-24T03:32:00+09:00,1.1,��,1.9,��,23.2,99.6,0,0,0,30,0,0,991.3,1004.6
2024-06-24T03:33:00+09:00,1.2,��,1.9,��,23.2,99.6,0,0,0,30,0,0,991.3,1004.6
2024-06-24T03:34:00+09:00,1.2,��,1.9,��,23.2,99.6,0,0,0,30,0,0,991.3,1004.6
2024-06-24T03:35:00+09:00,1.2,��,1.9,��,23.2,99.6,0,0,0,30,0,0,991.3,1004.6
2024-06-24T03:36:00+09:00,1.3,��,2.2,��,23.2,99.6,0,0,0,30,0,0,991.3,1004.6
2024-06-24T03:37:00+09:00,1.4,��,2.2,��,23.2,99.6,0,0,0,30,0,0,991.4,1004.7
2024-06-24T03:38:00+09:00,1.5,��,2.7,��,23.2,99.6,0,0,0,30,0,0,991.4,1004.7
2024-06-24T03:39:00+09:00,1.5,��,2.7,��,23.2,99.6,0,0,0,30,0,0,991.4,1004.7
2024-06-24T03:40:00+09:00,1.6,��,2.7,��,23.2,99.6,0,0,0,30,0,0,991.4,1004.7
2024-06-24T03:41:00+09:00,1.6,��,2.7,��,23.1,99.6,0,0,0,30,0,0,991.5,1004.8
2024-06-24T03:42:00+09:00,1.7,��,2.7,��,23.1,99.6,0,0,0,30,0,0,991.5,1004.8
2024-06-24T03:43:00+09:00,1.8,��,2.7,��,23.2,99.7,0,0,0,30,0,0,991.5,1004.8
2024-06-24T03:44:00+09:00,1.8,��,2.7,��,23.1,99.7,0,0,0,30,0,0,991.5,1004.8
2024-06-24T03:45:00+09:00,1.8,��,2.7,��,23.1,99.7,0,0,0,30,0,0,991.5,1004.8
2024-06-24T03:46:00+09:00,1.7,��,2.7,��,23.1,99.7,0,0,0,30,0,0,991.5,1004.8
2024-06-24T03:47:00+09:00,1.6,���k��,2.7,��,23.1,99.7,0,0,0,30,0,0,991.5,1004.8
2024-06-24T03:48:00+09:00,1.5,���k��,2.5,��,23.1,99.7,0,0,0,30,0,0,991.5,1004.8
2024-06-24T03:49:00+09:00,1.4,���k��,2.5,��,23.1,99.7,0,0,0,30,0,0,991.5,1004.8
2024-06-24T03:50:00+09:00,1.2,���k��,2.3,���k��,23.1,99.7,0,0,0,30,0,0,991.6,1004.9
2024-06-24T03:51:00+09:00,1.1,�k��,2.3,���k��,23.2,99.8,0,0,0,30,0,0,991.6,1004.9
2024-06-24T03:52:00+09:00,0.9,�k��,2.3,���k��,23.1,99.7,0,0,0,30,0,0,991.6,1004.9
2024-06-24T03:53:00+09:00,0.7,�k�k��,2.1,��,23.1,99.7,0,0,0,30,0,0,991.6,1004.9
2024-06-24T03:54:00+09:00,0.6,�k�k��,1.4,���k��,23.2,99.8,0,0,0,30,0,0,991.6,1004.9
2024-06-24T03:55:00+09:00,0.5,�k,1.3,�k��,23.2,99.8,0,0,0,30,0,0,991.6,1004.9
2024-06-24T03:56:00+09:00,0.5,�k,1.3,�k��,23.2,99.7,0,0,0,30,0,0,991.6,1004.9
2024-06-24T03:57:00+09:00,0.5,�k�k��,1.2,�k��,23.2,99.7,0,0,0,30,0,0,991.6,1004.9
2024-06-24T03:58:00+09:00,0.4,�k�k��,0.9,�k��,23.1,99.8,0,0,0,30,0,0,991.6,1004.9
2024-06-24T03:59:00+09:00,0.4,�k��,0.9,�k��,23.2,99.8,0,0,0,30,0,0,991.6,1004.9
2024-06-24T04:00:00+09:00,0.5,�k��,0.9,�k��,23.1,99.8,0,0,0,30,0,0,991.6,1004.9
2024-06-24T04:01:00+09:00,0.5,�k��,0.9,�k��,23.1,99.7,0,0,0,30,0,0,991.6,1004.9
2024-06-24T04:02:00+09:00,0.5,�k��,0.9,�k��,23.1,99.7,0,0,0,30,0,0,991.6,1004.9
2024-06-24T04:03:00+09:00,0.5,�k��,0.9,�k��,23.1,99.8,0,0,0,30,0,0,991.7,1005
2024-06-24T04:04:00+09:00,0.5,�k��,0.9,�k��,23.1,99.8,0,0,0,30,0,0,991.7,1005
2024-06-24T04:05:00+09:00,0.5,�k�k��,0.9,�k��,23,99.8,0,0,0,30,0,0,991.6,1004.9
2024-06-24T04:06:00+09:00,0.4,�k�k��,0.9,�k��,23,99.7,0,0,0,30,0,0,991.7,1005
2024-06-24T04:07:00+09:00,0.4,�k,0.7,���k��,23.1,99.8,0,0,0,30,0,0,991.7,1005
2024-06-24T04:08:00+09:00,0.3,�k,0.7,���k��,23.1,99.8,0,0,0,30,0,0,991.7,1005
2024-06-24T04:09:00+09:00,0.3,�k,0.7,���k��,23.1,99.8,0,0,0,30,0,0,991.8,1005.1
2024-06-24T04:10:00+09:00,0.2,�É�,0.6,�k,23.1,99.8,0,0,0,30,0,0,991.8,1005.1
2024-06-24T04:11:00+09:00,0.3,�k�k��,0.7,�k�k��,23.1,99.9,0,0,0,30,0,0,991.8,1005.1
2024-06-24T04:12:00+09:00,0.2,�É�,0.7,�k�k��,23.1,99.9,0,0,0,30,0,0,991.9,1005.2
2024-06-24T04:13:00+09:00,0.2,�É�,0.7,�k�k��,23,99.8,0,0,0,30,0,0,991.9,1005.2
2024-06-24T04:14:00+09:00,0.2,�É�,0.7,�k�k��,23,99.9,0,0,0,30,0,0,991.9,1005.2
2024-06-24T04:15:00+09:00,0.2,�É�,0.7,�k�k��,23,99.9,0,0,0,30,0,0,991.9,1005.2
2024-06-24T04:16:00+09:00,0.2,�É�,0.7,�k�k��,23,99.9,0,0,0,30,0,0,991.9,1005.2
2024-06-24T04:17:00+09:00,0.2,�É�,0.7,�k�k��,23,99.9,0,0,0,30,0,0,991.9,1005.2
2024-06-24T04:18:00+09:00,0.2,�É�,0.7,�k�k��,23,99.9,0,0,0,30,0,0,991.9,1005.2
2024-06-24T04:19:00+09:00,0.2,�É�,0.7,�k�k��,23,99.9,0,0,0,30,0,0,991.9,1005.2
2024-06-24T04:20:00+09:00,0.2,�É�,0.7,�k�k��,23,99.9,0,0,0,30,0,0,991.9,1005.2
2024-06-24T04:21:00+09:00,0.2,�É�,0.7,��,23,100,0,0,0,30,0,0,991.9,1005.2
2024-06-24T04:22:00+09:00,0.2,�É�,0.8,��,23,100,0,0,0,30,0,0,992,1005.3
2024-06-24T04:23:00+09:00,0.3,�k��,0.8,��,23,100,0,0,0,30,0,0,992,1005.3
2024-06-24T04:24:00+09:00,0.3,���k��,0.8,��,23,100,0,0,0,30,0,0,992,1005.3
2024-06-24T04:25:00+09:00,0.3,���k��,0.8,��,23,100,0,0,0,30,0,0,992,1005.3
2024-06-24T04:26:00+09:00,0.4,���k��,0.8,��,23.1,100,0,0,0,30,0,0,992.1,1005.4
2024-06-24T04:27:00+09:00,0.5,���k��,0.8,��,23.1,100,0,0,0,30,0,0,992.1,1005.4
2024-06-24T04:28:00+09:00,0.5,���k��,0.8,��,23.2,100,0,0,0,30,0,0,992.1,1005.4
2024-06-24T04:29:00+09:00,0.5,���k��,0.8,��,23.2,100,0,0,0,30,0,0,992.1,1005.4
2024-06-24T04:30:00+09:00,0.6,���k��,0.8,��,23.2,100,0,0,0,30,0,0,992.1,1005.4
2024-06-24T04:31:00+09:00,0.6,���k��,1.1,��,23.1,100,0,0,0,30,0,0,992.1,1005.4
2024-06-24T04:32:00+09:00,0.6,���k��,1.1,��,23.1,100,0,0,0,30,0,0,992.2,1005.5
2024-06-24T04:33:00+09:00,0.6,���k��,1.1,��,23.1,100,0,0,0,30,0,0,992.1,1005.4
2024-06-24T04:34:00+09:00,0.6,���k��,1.1,��,23.1,100,0,0,0,30,0,0,992.2,1005.5
2024-06-24T04:35:00+09:00,0.5,���k��,1.1,��,23.1,100,0,0,0,30,0,0,992.1,1005.4
2024-06-24T04:36:00+09:00,0.5,���k��,1.1,��,23,100,0,0,0,30,0,0,992.2,1005.5
2024-06-24T04:37:00+09:00,0.6,���k��,1.4,�k��,23.1,100,0,0,0,30,0,0,992.2,1005.5
2024-06-24T04:38:00+09:00,0.6,���k��,1.4,�k��,23,100,0,0,0,30,0,0,992.2,1005.5
2024-06-24T04:39:00+09:00,0.6,���k��,1.4,�k��,23,100,0,0,0,30,0,0,992.2,1005.5
2024-06-24T04:40:00+09:00,0.6,���k��,1.4,�k��,22.9,100,0,0,0,30,0,0,992.2,1005.5
2024-06-24T04:41:00+09:00,0.6,���k��,1.4,�k��,23,100,0,0,0,30,0,0,992.2,1005.5
2024-06-24T04:42:00+09:00,0.6,���k��,1.4,�k��,23,100,0,0,0,30,0,0,992.2,1005.5
2024-06-24T04:43:00+09:00,0.6,���k��,1.4,�k��,22.9,100,0,0,0,30,0,0,992.3,1005.6
2024-06-24T04:44:00+09:00,0.6,���k��,1.4,�k��,22.9,99.9,0,0,0,30,0,0,992.2,1005.5
2024-06-24T04:45:00+09:00,0.6,���k��,1.4,�k��,22.9,99.9,0,0,0,30,0,0,992.2,1005.5
2024-06-24T04:46:00+09:00,0.6,��,1.4,�k��,22.9,99.9,0,0,0,30,0,0,992.2,1005.5
2024-06-24T04:47:00+09:00,0.5,��,1.1,���쐼,22.9,99.9,0,0,0,30,0,0,992.2,1005.5
2024-06-24T04:48:00+09:00,0.4,��,1.1,���쐼,22.9,99.9,0,0,0,30,0,0,992.2,1005.5
2024-06-24T04:49:00+09:00,0.5,��,1.5,��,23,100,0,0,0,30,0,0,992.2,1005.5
2024-06-24T04:50:00+09:00,0.5,��,1.5,��,23,100,0,0,0,30,0,0,992.2,1005.5
2024-06-24T04:51:00+09:00,0.4,��,1.5,��,23,100,0,0,0,30,0,0,992.2,1005.5
2024-06-24T04:52:00+09:00,0.4,���k��,1.5,��,23,100,0,0,0,30,0,0,992.2,1005.5
2024-06-24T04:53:00+09:00,0.4,���k��,1.5,��,23.1,100,0,0,0,30,0,0,992.2,1005.5
2024-06-24T04:54:00+09:00,0.4,���k��,1.5,��,23.1,100,0,0,0,30,0,0,992.2,1005.5
2024-06-24T04:55:00+09:00,0.4,��,1.5,��,23,99.9,0,0,0,30,0,0,992.3,1005.6
2024-06-24T04:56:00+09:00,0.4,��,1.5,��,23,99.9,0,0,0,30,0,0,992.3,1005.6
2024-06-24T04:57:00+09:00,0.4,��,1.5,��,23,99.9,0,0,0,30,0,0,992.3,1005.6
2024-06-24T04:58:00+09:00,0.4,��,1.5,��,23,99.8,0,0,0,30,0,0,992.3,1005.6
2024-06-24T04:59:00+09:00,0.3,��,1.2,��,23,99.9,0,0,0,30,0,0,992.4,1005.7
2024-06-24T05:00:00+09:00,0.3,��,1.1,��,23,99.8,0,0,0,30,0,0,992.4,1005.7
2024-06-24T05:01:00+09:00,0.3,���k��,1.1,��,23,99.8,0,0,0,30,0,0,992.4,1005.7
2024-06-24T05:02:00+09:00,0.3,��,1.1,��,22.9,99.8,0,0,0,30,0.01,0,992.4,1005.7
2024-06-24T05:03:00+09:00,0.3,��,0.8,�k��,22.9,99.8,0,0,0,30,0.01,0,992.4,1005.7
2024-06-24T05:04:00+09:00,0.3,��,0.8,�k��,22.9,99.8,0,0,0,30,0.01,0,992.4,1005.7
2024-06-24T05:05:00+09:00,0.3,��,0.8,�k��,22.9,99.8,0,0,0,30,0.01,0,992.4,1005.7
2024-06-24T05:06:00+09:00,0.3,���k��,0.8,�k��,22.9,99.8,0,0,0,30,0.01,0,992.4,1005.7